TimeCST,TemperatureF,Dew PointF,Humidity,Sea Level PressureIn,VisibilityMPH,Wind Direction,Wind SpeedMPH,Gust SpeedMPH,PrecipitationIn,Events,Conditions,WindDirDegrees,DateUTC
12:53 AM,72.0,66.9,84,29.89,10.0,SE,11.5,-,N/A,,Clear,130,2012-12-15 06:53:00
1:53 AM,72.0,66.0,81,29.87,10.0,SE,13.8,-,N/A,,Clear,140,2012-12-15 07:53:00
2:53 AM,71.1,66.0,84,29.86,10.0,SE,13.8,-,N/A,,Clear,140,2012-12-15 08:53:00
3:53 AM,71.1,66.0,84,29.85,10.0,SE,12.7,-,N/A,,Clear,140,2012-12-15 09:53:00
4:53 AM,70.0,66.0,87,29.85,10.0,SSE,9.2,-,N/A,,Clear,150,2012-12-15 10:53:00
5:53 AM,69.1,64.9,87,29.85,10.0,SSE,8.1,-,N/A,,Clear,150,2012-12-15 11:53:00
6:53 AM,70.0,66.0,87,29.86,10.0,SSE,8.1,-,N/A,,Clear,160,2012-12-15 12:53:00
7:53 AM,70.0,66.9,90,29.88,8.0,SSE,8.1,-,N/A,,Clear,160,2012-12-15 13:53:00
8:53 AM,73.0,68.0,84,29.89,10.0,SSE,16.1,20.7,N/A,,Mostly Cloudy,160,2012-12-15 14:53:00
9:53 AM,73.9,66.9,79,29.92,10.0,SSW,6.9,-,N/A,,Overcast,200,2012-12-15 15:53:00
10:53 AM,75.9,66.9,74,29.91,10.0,South,5.8,-,N/A,,Mostly Cloudy,170,2012-12-15 16:53:00
11:53 AM,79.0,66.0,64,29.89,10.0,Variable,6.9,-,N/A,,Mostly Cloudy,0,2012-12-15 17:53:00
12:36 PM,80.6,66.2,61,29.86,10.0,SSE,3.5,-,N/A,,Partly Cloudy,150,2012-12-15 18:36:00
12:53 PM,81.0,66.0,60,29.85,10.0,Calm,Calm,-,N/A,,Clear,0,2012-12-15 18:53:00
1:53 PM,82.9,66.0,56,29.82,10.0,North,3.5,-,N/A,,Clear,350,2012-12-15 19:53:00
2:53 PM,82.9,64.9,54,29.81,10.0,NNW,4.6,-,N/A,,Clear,340,2012-12-15 20:53:00
3:53 PM,82.4,64.4,54,29.81,10.0,North,5.8,-,N/A,,Clear,350,2012-12-15 21:53:00
4:53 PM,81.0,64.9,58,29.81,10.0,NW,4.6,-,N/A,,Clear,320,2012-12-15 22:53:00
5:53 PM,78.1,64.9,64,29.81,10.0,Calm,Calm,-,N/A,,Clear,0,2012-12-15 23:53:00
6:53 PM,75.0,66.0,73,29.83,8.0,Calm,Calm,-,N/A,,Clear,0,2012-12-16 00:53:00
7:53 PM,75.0,64.9,71,29.86,10.0,Calm,Calm,-,N/A,,Clear,0,2012-12-16 01:53:00
8:53 PM,72.0,64.0,76,29.87,10.0,Calm,Calm,-,N/A,,Clear,0,2012-12-16 02:53:00
9:53 PM,71.1,64.0,78,29.86,10.0,South,3.5,-,N/A,,Clear,180,2012-12-16 03:53:00
10:53 PM,69.1,63.0,81,29.84,10.0,South,3.5,-,N/A,,Mostly Cloudy,190,2012-12-16 04:53:00
11:53 PM,71.1,64.0,78,29.82,10.0,SSE,3.5,-,N/A,,Overcast,150,2012-12-16 05:53:00